Hourly Weather Roundup
Issued by NWS Central Illinois

Home | Current Version | Previous Version | Text Only | Print | Product List | Glossary On
Versions: 1 2 3 4 5 6 7 8 9 10 11 12 13 14 15 16 17 18 19 20 21 22 23 24 25 26 27 28 29 30 31 32 33 34 35 36 37 38 39 40 41 42 43 44 45 46 47 48 49 50
000
NZUS43 KILX 281610
HWRILX

AREA WEATHER ROUNDUP
NATIONAL WEATHER SERVICE, LINCOLN IL
1100 AM CDT THU MAY 28 2015


CITY           SKY/WX    TMP DP  RH WIND       PRES   REMARKS
BLOOMINGTON    SUNNY     78  57  48 SE14      30.21F
CHAMPAIGN      SUNNY     80  50  34 NE14      30.19F HX  80
DANVILLE       SUNNY     77  53  42 E8        30.19S
DECATUR        SUNNY     78  56  46 E12       30.17F
EFFINGHAM      SUNNY     80  60  50 E9        30.18F HX  81
FLORA          SUNNY     77  66  69 SE7       30.17F
GALESBURG      MOSUNNY   75  55  48 SE7       30.16F
JACKSONVILLE   MOSUNNY   80  59  49 SE12      30.15S HX  80
LACON          SUNNY     78  55  44 SE8       30.18F
LAWRENCEVILLE  PTSUNNY   79  66  64 SE7       30.18F HX  81
LITCHFIELD     MOSUNNY   77  60  56 SE8       30.16S
$$


CITY           SKY/WX    TMP DP  RH WIND       PRES   REMARKS
LINCOLN        SUNNY     78  54  43 E13       30.15F
MACOMB         SUNNY     76  58  53 E13G20    30.18F
MATTOON        NOT AVBL
MT CARMEL AP   SUNNY     81  64  57 SE7       30.17S HX  82
OLNEY-NOBLE AP PTSUNNY   79  68  69 SE7       30.18S HX  81
PARIS          SUNNY     80  51  36 SE8       30.20F
PEORIA         SUNNY     79  54  41 SE12G21   30.18F
PONTIAC        SUNNY     79  56  45 E12G17    30.21F HX  80
RANTOUL        SUNNY     80  53  39 E13       30.20F HX  80
ROBINSON       PTSUNNY   79  64  59 E7        30.19S HX  81
SPRINGFIELD    SUNNY     79  57  46 E13       30.16F HX  80
TAYLORVILLE    SUNNY     75  59  57 SE9       30.16F
$$

...REGIONAL REPORTS...


CITY           SKY/WX    TMP DP  RH WIND       PRES   REMARKS
CHICAGO O`HARE PTSUNNY   78  52  40 SE6       30.20F
KANKAKEE       SUNNY     76  59  55 E12G17    30.22F
MOLINE         SUNNY     80  58  46 S14       30.15F HX  80
MOUNT VERNON   MOSUNNY   79  68  69 SE6       30.16F HX  81
PITTSFIELD     PTSUNNY   76  60  56 SE8       30.16S
QUINCY         CLOUDY    75  56  51 SE12      30.13F
ROCKFORD       PTSUNNY   78  59  51 S8        30.20F
$$


CITY           SKY/WX    TMP DP  RH WIND       PRES   REMARKS
BURLINGTON     MOSUNNY   77  59  53 SE9       30.14F
CEDAR RAPIDS   MOSUNNY   76  60  57 S13       30.13F
DES MOINES     CLOUDY    75  60  59 S13       30.09F
KIRKSVILLE     CLOUDY    73  61  65 SE14      30.13F
OTTUMWA        PTSUNNY   75  60  59 S15G23    30.12S
ST LOUIS       PTSUNNY   80  65  59 E9        30.14S HX  82
$$


CITY           SKY/WX    TMP DP  RH WIND       PRES   REMARKS
TERRE HAUTE    SUNNY     79  58  48 E7        30.19F HX  80
EVANSVILLE     PTSUNNY   77  68  73 VRB5      30.18F
INDIANAPOLIS   MOSUNNY   76  56  49 E3        30.20S
LAFAYETTE      SUNNY     73  59  61 E9        30.21F
MADISON        PTSUNNY   78  57  48 VRB3      30.17F
MILWAUKEE      SUNNY     78  58  49 SW8       30.19F
$$




USA.gov is the U.S. government's official web portal to all federal, state and local government web resources and services.